Location: Monteux
(44.0348°N, 4.9972°E)
Time: 17:52:03
(UTC+00:00)

Cosmos 1943 - Pass Details

Date: 30 November 2020
Orbit: 832 x 851 km, 71.0° (Epoch: 23 January)

Event Time Altitude Azimuth Distance (km) Brightness Sun altitude
Rises 18:04:08 0° 200° (SSW) 3,376 6.8 -21.1°
Reaches altitude 10° 18:06:33 10° 200° (SSW) 2,449 6.0 -21.5°
Maximum altitude 18:12:11 83° 114° (ESE) 856 3.1 -22.5°
Enters shadow 18:14:33 37° 30° (NNE) 1,297 3.8 -23.0°
